Home   Weather   Eucla   Past weeks

Flag for Australia Past Weather in Eucla, Western Australia, Australia — Yesterday and Last 2 Weeks

Now
97 °F

Extremely hot.


Feels Like: 92 °F
Forecast: 60 / 72 °F
Wind: 18 mph from North

Location: Eucla Amo

Current Time: Feb 21, 2017 at 2:32:38 pm

Latest Report: Feb 21, 2017 at 12:45 pm


Visibility: N/A

Pressure: 29.67 "Hg

Humidity: 9%

Dew Point: 29 °F

Location of EuclaLocation

Past Weather in Eucla — Graph

°F

Eucla Temperature Yesterday

Maximum temperature yesterday: 75 °F (at 11:45 am)
Minimum temperature yesterday: 50 °F (at 3:45 am)
Average temperature yesterday: 64 °F

High & Low Weather Summary for the Past Weeks

 TemperatureHumidityPressure
High107 °F (Feb 8, 12:45 pm)95% (Feb 9, 2:45 am)30.23 "Hg (Feb 9, 2:45 am)
Low50 °F (Feb 20, 3:45 am)9% (Feb 21, 11:45 am)29.61 "Hg (Feb 8, 6:45 am)
Average69 °F69%29.96 "Hg
* Reported Feb 6 12:45 pm — Feb 21 12:45 pm, Eucla, Weather by CustomWeather, © 2017

Note: Actual official high and low records may vary slightly from our data, if they occured in-between our weather recording intervals... More about our weather records

Advertising

Eucla Weather History for the Previous 24 Hours

Scroll right to see more
 ConditionsComfort  
Time TempWeatherWind HumidityBarometerVisibility
12:45 pm
Tue, Feb 21
97 °FExtremely hot.18 mph9%29.67 "HgN/A
11:45 am95 °FExtremely hot.18 mph9%29.70 "HgN/A
9:45 am89 °FPartly sunny.18 mph16%29.76 "Hg25 mi
8:45 am82 °FPleasantly warm.17 mph24%29.79 "HgN/A
6:45 am62 °FMild.15 mph62%29.83 "HgN/A
5:45 am60 °FCool.14 mph70%29.83 "HgN/A
3:45 am61 °FCool.15 mph69%29.84 "HgN/A
2:45 am62 °FCool.14 mph68%29.84 "HgN/A
12:45 am62 °FCool.13 mph65%29.87 "HgN/A
11:45 pm
Mon, Feb 20
61 °FCool.12 mph71%29.89 "HgN/A
9:45 pm63 °FMild.10 mph71%29.94 "HgN/A
8:45 pm64 °FMild.12 mph73%29.94 "HgN/A
6:45 pm67 °FMild.13 mph71%29.93 "HgN/A
5:45 pm69 °FMild.15 mph65%29.93 "HgN/A
3:45 pm72 °FSunny.15 mph58%29.93 "Hg25 mi
2:45 pm72 °FMild.14 mph53%29.94 "HgN/A
Weather by CustomWeather, © 2017

See weather overviewHow to use our weather pages